CW4221 Weather Reports


Display with metric or nautical units.
time (UTC)temp
F
wind
direction
speed
MPH
gust
MPH
rain 1hr
in
rain 24hr
in
rain mn
in
humidity
%
barometer
mb
20260901164350 91 329 0.0 7.0 0.00 0.00 0.00 55 1020.2
20260901163825 90 263 4.0 9.0 0.00 0.00 0.00 55 1020.3
20260901163321 90 247 4.0 9.0 0.00 0.00 0.00 54 1020.3
20260901162817 89 233 3.0 8.0 0.00 0.00 0.00 56 1020.3
20260901162334 89 202 2.0 8.0 0.00 0.00 0.00 56 1020.4
20260901161809 90 206 2.0 7.0 0.00 0.00 0.00 57 1020.4
20260901161310 89 335 1.0 7.0 0.00 0.00 0.00 59 1020.3
20260901160847 89 220 3.0 10.0 0.00 0.00 0.00 57 1020.4
20260901160321 89 271 4.0 10.0 0.00 0.00 0.00 58 1020.3
20260901155817 88 233 3.0 8.0 0.00 0.00 0.00 59 1020.3
20260901155313 88 239 5.0 10.0 0.00 0.00 0.00 57 1020.3
20260901154828 87 259 3.0 10.0 0.00 0.00 0.00 56 1020.3
20260901154325 87 265 6.0 9.0 0.00 0.00 0.00 57 1020.4
20260901153821 87 233 4.0 9.0 0.00 0.00 0.00 58 1020.3
20260901153321 87 244 3.0 9.0 0.00 0.00 0.00 59 1020.3
20260901152817 87 277 5.0 9.0 0.00 0.00 0.00 59 1020.3
20260901152334 87 207 4.0 9.0 0.00 0.00 0.00 60 1020.2
20260901151849 86 265 3.0 8.0 0.00 0.00 0.00 60 1020.3
20260901151345 86 234 3.0 8.0 0.00 0.00 0.00 60 1020.3
20260901150819 86 231 4.0 8.0 0.00 0.00 0.00 60 1020.3
20260901150315 86 244 4.0 9.0 0.00 0.00 0.00 60 1020.3
20260901145811 85 232 4.0 9.0 0.00 0.00 0.00 61 1020.3
20260901145327 85 253 3.0 7.0 0.00 0.00 0.00 64 1020.3
20260901144826 84 225 3.0 7.0 0.00 0.00 0.00 65 1020.3
20260901144323 84 240 4.0 7.0 0.00 0.00 0.00 65 1020.4
20260901143819 83 228 3.0 6.0 0.00 0.00 0.00 66 1020.4
20260901143315 83 237 2.0 4.0 0.00 0.00 0.00 66 1020.4
20260901142811 83 219 1.0 4.0 0.00 0.00 0.00 69 1020.4
20260901142327 82 165 1.0 4.0 0.00 0.00 0.00 68 1020.5
20260901141822 82 203 2.0 7.0 0.00 0.00 0.00 69 1020.4
20260901141322 81 217 2.0 7.0 0.00 0.00 0.00 69 1020.4
20260901140818 81 231 2.0 4.0 0.00 0.00 0.00 69 1020.4
20260901140315 81 196 2.0 7.0 0.00 0.00 0.00 70 1020.5
20260901135812 81 138 3.0 7.0 0.00 0.00 0.00 69 1020.4
20260901135348 81 200 1.0 6.0 0.00 0.00 0.00 72 1020.4
20260901134823 80 236 2.0 6.0 0.00 0.00 0.00 72 1020.6
20260901134339 79 232 3.0 6.0 0.00 0.00 0.00 72 1020.5
20260901133815 78 105 1.0 2.0 0.00 0.00 0.00 75 1020.5
20260901133315 78 223 1.0 5.0 0.00 0.00 0.00 76 1020.4
20260901132813 78 188 2.0 5.0 0.00 0.00 0.00 75 1020.4
20260901132328 77 155 1.0 3.0 0.00 0.00 0.00 76 1020.5
20260901131845 77 234 1.0 3.0 0.00 0.00 0.00 77 1020.4
20260901131320 76 141 0.0 2.0 0.00 0.00 0.00 78 1020.4
20260901130817 75 165 0.0 2.0 0.00 0.00 0.00 79 1020.4
20260901130313 74 126 0.0 1.0 0.00 0.00 0.00 81 1020.4
20260901125829 73 126 0.0 0.0 0.00 0.00 0.00 86 1020.4
20260901125310 71 126 0.0 0.0 0.00 0.00 0.00 86 1020.4
20260901124826 71 126 0.0 0.0 0.00 0.00 0.00 89 1020.3
20260901124323 70 126 0.0 0.0 0.00 0.00 0.00 89 1020.3
20260901123840 69 126 0.0 0.0 0.00 0.00 0.00 88 1020.2
20260901123336 68 126 0.0 0.0 0.00 0.00 0.00 89 1020.1
20260901122810 68 126 0.0 0.0 0.00 0.00 0.00 90 1019.9
20260901122326 68 126 0.0 0.0 0.00 0.00 0.00 90 1019.9
20260901121823 67 126 0.0 0.0 0.00 0.00 0.00 90 1019.8
20260901121318 67 126 0.0 0.0 0.00 0.00 0.00 90 1019.8
20260901120818 67 126 0.0 0.0 0.00 0.00 0.00 90 1019.7
20260901120315 67 126 0.0 0.0 0.00 0.00 0.00 90 1019.6
20260901115811 67 126 0.0 0.0 0.00 0.00 0.00 89 1019.5
20260901115348 67 126 0.0 0.0 0.00 0.00 0.00 89 1019.5
20260901114823 68 126 0.0 2.0 0.00 0.00 0.00 88 1019.5
20260901114319 68 126 0.0 2.0 0.00 0.00 0.00 89 1019.4
20260901113815 68 126 0.0 0.0 0.00 0.00 0.00 88 1019.3
20260901113311 68 126 0.0 0.0 0.00 0.00 0.00 89 1019.3
20260901112812 68 126 0.0 0.0 0.00 0.00 0.00 89 1019.3
20260901112328 67 126 0.0 0.0 0.00 0.00 0.00 89 1019.3
20260901111825 67 126 0.0 0.0 0.00 0.00 0.00 89 1019.1
20260901111342 67 126 0.0 0.0 0.00 0.00 0.00 88 1019.1
20260901110817 67 126 0.0 0.0 0.00 0.00 0.00 89 1019.2
20260901110312 67 126 0.0 0.0 0.00 0.00 0.00 88 1019.1
20260901105828 67 126 0.0 0.0 0.00 0.00 0.00 88 1019.1
20260901105323 67 126 0.0 0.0 0.00 0.00 0.00 88 1019.1
20260901104824 67 126 0.0 0.0 0.00 0.00 0.00 88 1019.1
20260901104319 67 126 0.0 0.0 0.00 0.00 0.00 88 1019.1
20260901103815 68 126 0.0 0.0 0.00 0.00 0.00 86 1019.0
20260901103331 68 126 0.0 0.0 0.00 0.00 0.00 86 1019.0
20260901102827 68 126 0.0 0.0 0.00 0.00 0.00 87 1019.0
20260901102322 68 126 0.0 0.0 0.00 0.00 0.00 86 1019.0
20260901101818 68 126 0.0 0.0 0.00 0.00 0.00 86 1019.0
20260901101334 68 126 0.0 0.0 0.00 0.00 0.00 86 1019.0
20260901100813 69 126 0.0 0.0 0.00 0.00 0.00 85 1019.1
20260901100309 69 126 0.0 0.0 0.00 0.00 0.00 84 1019.0
20260901095824 69 126 0.0 0.0 0.00 0.00 0.00 85 1019.0
20260901095320 69 126 0.0 0.0 0.00 0.00 0.00 84 1019.1
20260901094816 69 126 0.0 0.0 0.00 0.00 0.00 84 1019.0
20260901094312 69 126 0.0 0.0 0.00 0.00 0.00 84 1019.0
20260901093827 69 126 0.0 0.0 0.00 0.00 0.00 83 1019.0
20260901093323 69 126 0.0 0.0 0.00 0.00 0.00 83 1018.9
20260901092844 70 126 0.0 0.0 0.00 0.00 0.00 83 1018.9
20260901092320 70 126 0.0 2.0 0.00 0.00 0.00 81 1018.9
20260901091815 71 126 0.0 2.0 0.00 0.00 0.00 80 1018.8
20260901091331 71 126 0.0 2.0 0.00 0.00 0.00 81 1018.8
20260901090827 70 126 0.0 2.0 0.00 0.00 0.00 82 1018.7
20260901090321 70 126 0.0 0.0 0.00 0.00 0.00 81 1018.7
20260901085817 71 126 0.0 2.0 0.00 0.00 0.00 81 1018.7
20260901085313 70 126 0.0 2.0 0.00 0.00 0.00 81 1018.8
20260901084814 70 126 0.0 0.0 0.00 0.00 0.00 82 1018.7
20260901084311 70 126 0.0 1.0 0.00 0.00 0.00 81 1018.7
20260901083827 70 126 0.0 1.0 0.00 0.00 0.00 81 1018.7
20260901083323 70 126 0.0 0.0 0.00 0.00 0.00 82 1018.7
20260901082820 70 126 0.0 0.0 0.00 0.00 0.00 82 1018.7
20260901082316 70 126 0.0 2.0 0.00 0.00 0.00 82 1018.7
20260901081812 70 126 0.0 2.0 0.00 0.00 0.00 84 1018.6
20260901081313 69 126 0.0 0.0 0.00 0.00 0.00 84 1018.6
20260901080809 69 126 0.0 0.0 0.00 0.00 0.00 84 1018.6
20260901080325 69 126 0.0 0.0 0.00 0.00 0.00 84 1018.6
20260901075820 70 126 0.0 0.0 0.00 0.00 0.00 83 1018.6
20260901075316 70 126 0.0 0.0 0.00 0.00 0.00 82 1018.7
20260901074812 70 126 0.0 0.0 0.00 0.00 0.00 82 1018.7
20260901074328 70 126 0.0 0.0 0.00 0.00 0.00 80 1018.7
20260901073824 71 126 0.0 0.0 0.00 0.00 0.00 80 1018.6
20260901073325 71 126 0.0 0.0 0.00 0.00 0.00 78 1018.6
20260901072821 72 126 0.0 1.0 0.00 0.00 0.00 77 1018.6
20260901072316 73 126 0.0 1.0 0.00 0.00 0.00 76 1018.6
20260901071811 72 126 0.0 0.0 0.00 0.00 0.00 77 1018.6
20260901071328 72 126 0.0 0.0 0.00 0.00 0.00 76 1018.5
20260901070825 73 126 0.0 2.0 0.00 0.00 0.00 76 1018.6
20260901070342 73 126 0.0 2.0 0.00 0.00 0.00 74 1018.6
20260901065816 73 126 0.0 0.0 0.00 0.00 0.00 74 1018.5
20260901065316 73 126 0.0 0.0 0.00 0.00 0.00 74 1018.6
20260901064812 73 126 0.0 0.0 0.00 0.00 0.00 75 1018.6
20260901064328 74 126 0.0 0.0 0.00 0.00 0.00 74 1018.7
20260901063844 74 126 0.0 0.0 0.00 0.00 0.00 72 1018.7
20260901063320 75 126 0.0 0.0 0.00 0.00 0.00 71 1018.7
20260901062816 75 126 0.0 0.0 0.00 0.00 0.00 71 1018.7
20260901062334 75 126 0.0 2.0 0.00 0.00 0.00 70 1018.7
20260901061828 76 126 0.0 2.0 0.00 0.00 0.00 70 1018.6
20260901061324 75 188 0.0 2.0 0.00 0.00 0.00 71 1018.6
20260901060844 75 188 0.0 2.0 0.00 0.00 0.00 72 1018.7
20260901060319 74 188 0.0 1.0 0.00 0.00 0.00 72 1018.6
20260901055814 74 188 0.0 0.0 0.00 0.00 0.00 73 1018.6
20260901055310 75 188 0.0 0.0 0.00 0.00 0.00 72 1018.6
20260901054826 74 188 0.0 0.0 0.00 0.00 0.00 73 1018.6
20260901054322 74 188 0.0 2.0 0.00 0.00 0.00 73 1018.6
20260901053818 75 188 0.0 2.0 0.00 0.00 0.00 72 1018.6
20260901053319 75 188 0.0 2.0 0.00 0.00 0.00 70 1018.5
20260901052815 75 188 0.0 2.0 0.00 0.00 0.00 72 1018.4
20260901052312 74 188 0.0 2.0 0.00 0.00 0.00 74 1018.4
20260901051827 74 188 0.0 2.0 0.00 0.00 0.00 74 1018.3
20260901051324 74 188 0.0 1.0 0.00 0.00 0.00 74 1018.2
20260901050820 74 188 0.0 0.0 0.00 0.00 0.00 74 1018.2
20260901050317 75 188 0.0 0.0 0.00 0.00 0.00 72 1018.2
20260901045817 76 188 0.0 0.0 0.00 0.00 0.00 70 1018.3
20260901045314 76 188 0.0 0.0 0.00 0.00 0.00 69 1018.3
20260901044809 77 188 0.0 1.0 0.00 0.00 0.00 67 1018.4
20260901044327 78 188 0.0 2.0 0.00 0.00 0.00 65 1018.3
20260901043823 78 188 0.0 2.0 0.00 0.00 0.00 65 1018.3
20260901043318 78 188 0.0 2.0 0.00 0.00 0.00 66 1018.2
20260901042814 77 188 0.0 2.0 0.00 0.00 0.00 66 1018.3
20260901042351 77 188 0.0 2.0 0.00 0.00 0.00 66 1018.2
20260901041811 78 188 0.0 2.0 0.00 0.00 0.00 66 1018.3
20260901041326 79 188 0.0 2.0 0.00 0.00 0.00 64 1018.3
20260901040843 79 188 0.0 2.0 0.00 0.00 0.00 63 1018.3
20260901040319 80 188 0.0 2.0 0.00 0.00 0.00 62 1018.3
20260901035815 80 188 0.0 2.0 0.00 0.00 0.00 61 1018.3
20260901035350 81 188 0.0 2.0 0.00 0.00 0.00 61 1018.3
20260901034826 81 188 0.0 2.0 0.00 0.00 0.00 60 1018.3
20260901034342 81 201 0.0 2.0 0.00 0.00 0.00 59 1018.3
20260901033837 81 207 1.0 2.0 0.00 0.00 0.00 59 1018.3
20260901021820 79 114 0.0 1.0 0.00 0.00 0.00 66 1017.4
20260901021337 79 114 0.0 2.0 0.00 0.00 0.00 66 1017.4
20260901020812 80 114 0.0 2.0 0.00 0.00 0.00 65 1017.5
20260901020328 79 114 0.0 0.0 0.00 0.00 0.00 66 1017.4
20260901015823 79 114 0.0 0.0 0.00 0.00 0.00 66 1017.3
20260901015339 80 114 0.0 0.0 0.00 0.00 0.00 65 1017.3
20260901014813 80 114 0.0 0.0 0.00 0.00 0.00 65 1017.2
20260901014310 81 114 0.0 0.0 0.00 0.00 0.00 63 1017.1
20260901013810 81 114 0.0 0.0 0.00 0.00 0.00 63 1017.1
20260901013326 82 114 0.0 0.0 0.00 0.00 0.00 62 1017.0
20260901012823 81 114 0.0 0.0 0.00 0.00 0.00 64 1017.0
20260901012319 81 114 0.0 0.0 0.00 0.00 0.00 64 1017.0
20260901011815 81 114 0.0 0.0 0.00 0.00 0.00 64 1016.9
20260901011310 82 114 0.0 2.0 0.00 0.00 0.00 63 1016.8
20260901010828 83 114 0.0 2.0 0.00 0.00 0.00 61 1016.8
20260901010343 83 114 0.0 2.0 0.00 0.00 0.00 61 1016.7
20260901005820 83 114 0.0 1.0 0.00 0.00 0.00 60 1016.7
20260901005337 83 114 0.0 2.0 0.00 0.00 0.00 61 1016.7
20260901004833 85 114 0.0 2.0 0.00 0.00 0.00 57 1016.6
20260901004328 85 114 0.0 2.0 0.00 0.00 0.00 57 1016.6
20260901003845 86 114 0.0 2.0 0.00 0.00 0.00 56 1016.5
20260901003340 87 114 0.0 2.0 0.00 0.00 0.00 55 1016.5
20260901002835 87 114 0.0 2.0 0.00 0.00 0.00 53 1016.6
20260901002310 88 114 0.0 2.0 0.00 0.00 0.00 52 1016.5
20260901001827 89 114 0.0 2.0 0.00 0.00 0.00 50 1016.5
20260901001323 90 114 0.0 2.0 0.00 0.00 0.00 49 1016.5
20260901000840 90 114 0.0 2.0 0.00 0.00 0.00 49 1016.5
20260901000321 91 114 1.0 3.0 0.00 0.00 0.00 48 1016.5
20260831235814 91 115 0.0 3.0 0.00 0.00 0.00 49 1016.5
20260831235310 91 124 0.0 3.0 0.00 0.00 0.00 48 1016.5
20260831234846 91 92 0.0 3.0 0.00 0.00 0.00 49 1016.5
20260831234321 92 95 2.0 3.0 0.00 0.00 0.00 46 1016.5
20260831233818 92 119 1.0 3.0 0.00 0.00 0.00 46 1016.4
20260831233335 93 113 2.0 3.0 0.00 0.00 0.00 45 1016.4
20260831232809 93 97 1.0 3.0 0.00 0.00 0.00 46 1016.5
20260831232310 93 175 1.0 2.0 0.00 0.00 0.00 45 1016.5
20260831231846 94 115 1.0 6.0 0.00 0.00 0.00 44 1016.5
20260831231320 94 100 2.0 6.0 0.00 0.00 0.00 43 1016.5
20260831230816 94 165 2.0 6.0 0.00 0.00 0.00 43 1016.5
20260831230313 95 103 2.0 4.0 0.00 0.00 0.00 42 1016.5
20260831225810 95 105 2.0 6.0 0.00 0.00 0.00 42 1016.5
20260831225326 95 100 2.0 6.0 0.00 0.00 0.00 42 1016.5
20260831224822 95 106 2.0 4.0 0.00 0.00 0.00 42 1016.5
20260831224323 95 92 1.0 6.0 0.00 0.00 0.00 42 1016.5
20260831223818 96 128 2.0 6.0 0.00 0.00 0.00 42 1016.5
20260831223314 96 61 2.0 6.0 0.00 0.00 0.00 41 1016.5
20260831222830 96 107 1.0 6.0 0.00 0.00 0.00 41 1016.7
20260831222345 96 202 2.0 8.0 0.00 0.00 0.00 38 1016.7
20260831221820 95 198 2.0 8.0 0.00 0.00 0.00 38 1016.7
20260831221316 96 207 2.0 8.0 0.00 0.00 0.00 38 1016.6
20260831220812 97 223 3.0 8.0 0.00 0.00 0.00 38 1016.6
20260831220349 97 126 2.0 7.0 0.00 0.00 0.00 38 1016.7
20260831215827 96 100 3.0 7.0 0.00 0.00 0.00 39 1016.7
20260831215323 96 82 1.0 8.0 0.00 0.00 0.00 37 1016.7
20260831214819 97 190 3.0 7.0 0.00 0.00 0.00 37 1016.7
20260831214315 97 109 2.0 7.0 0.00 0.00 0.00 37 1016.7
20260831213811 97 104 2.0 6.0 0.00 0.00 0.00 37 1016.7
20260831213327 97 188 3.0 5.0 0.00 0.00 0.00 37 1016.7
20260831212823 97 219 2.0 6.0 0.00 0.00 0.00 38 1016.7
20260831212324 97 190 2.0 6.0 0.00 0.00 0.00 37 1016.7
20260831211820 97 223 4.0 6.0 0.00 0.00 0.00 37 1016.7
20260831211317 97 83 1.0 11.0 0.00 0.00 0.00 37 1016.8
20260831210814 97 178 4.0 11.0 0.00 0.00 0.00 37 1016.9
20260831210310 97 219 2.0 5.0 0.00 0.00 0.00 38 1016.9
20260831205826 97 148 3.0 5.0 0.00 0.00 0.00 36 1017.0
20260831205322 98 167 2.0 5.0 0.00 0.00 0.00 37 1017.0
20260831204822 97 121 2.0 8.0 0.00 0.00 0.00 36 1017.1
20260831204318 97 137 4.0 9.0 0.00 0.00 0.00 37 1017.2
20260831203814 97 229 2.0 9.0 0.00 0.00 0.00 37 1017.2
20260831203310 97 191 3.0 9.0 0.00 0.00 0.00 38 1017.3
20260831202846 97 100 4.0 9.0 0.00 0.00 0.00 40 1017.2
20260831202322 97 115 3.0 7.0 0.00 0.00 0.00 37 1017.4
20260831201818 97 140 2.0 5.0 0.00 0.00 0.00 37 1017.4
20260831201313 97 72 2.0 5.0 0.00 0.00 0.00 38 1017.4
20260831200835 97 103 2.0 7.0 0.00 0.00 0.00 37 1017.5
20260831200328 97 124 3.0 8.0 0.00 0.00 0.00 38 1017.6
20260831195823 97 114 3.0 8.0 0.00 0.00 0.00 38 1017.7
20260831195319 97 108 2.0 7.0 0.00 0.00 0.00 36 1017.7
20260831194814 96 181 2.0 7.0 0.00 0.00 0.00 36 1017.8
20260831194311 96 184 1.0 7.0 0.00 0.00 0.00 36 1017.8
20260831193847 96 254 3.0 11.0 0.00 0.00 0.00 35 1017.8
20260831193322 97 198 4.0 8.0 0.00 0.00 0.00 36 1017.9
20260831192819 97 117 4.0 8.0 0.00 0.00 0.00 36 1017.9
20260831192339 96 134 2.0 10.0 0.00 0.00 0.00 40 1017.9
20260831191815 97 129 3.0 10.0 0.00 0.00 0.00 40 1018.0
20260831191312 96 94 2.0 6.0 0.00 0.00 0.00 38 1018.0
20260831190828 97 253 4.0 8.0 0.00 0.00 0.00 38 1018.1
20260831190324 96 167 3.0 7.0 0.00 0.00 0.00 38 1018.0
20260831185820 97 134 4.0 7.0 0.00 0.00 0.00 40 1018.1
20260831185315 97 259 3.0 7.0 0.00 0.00 0.00 37 1018.2
20260831184811 96 92 3.0 7.0 0.00 0.00 0.00 39 1018.3
20260831184332 96 94 1.0 5.0 0.00 0.00 0.00 41 1018.3
20260831183827 94 223 1.0 8.0 0.00 0.00 0.00 42 1018.5
20260831183321 96 240 4.0 8.0 0.00 0.00 0.00 38 1018.5
20260831182818 96 226 3.0 6.0 0.00 0.00 0.00 41 1018.5
20260831182314 95 258 2.0 8.0 0.00 0.00 0.00 40 1018.6
20260831181811 94 217 1.0 6.0 0.00 0.00 0.00 44 1018.6
20260831181329 94 232 2.0 6.0 0.00 0.00 0.00 42 1018.6
20260831180824 95 272 1.0 4.0 0.00 0.00 0.00 40 1018.7
20260831180324 94 209 2.0 5.0 0.00 0.00 0.00 40 1018.8
20260831175821 94 177 1.0 9.0 0.00 0.00 0.00 42 1018.9
20260831175317 94 275 3.0 9.0 0.00 0.00 0.00 47 1019.0
20260831174815 94 255 2.0 9.0 0.00 0.00 0.00 46 1019.0
20260831174312 94 217 5.0 9.0 0.00 0.00 0.00 47 1019.0
20260831173828 94 213 2.0 5.0 0.00 0.00 0.00 47 1019.0
20260831173322 94 261 3.0 7.0 0.00 0.00 0.00 48 1019.1
20260831172819 93 242 3.0 8.0 0.00 0.00 0.00 48 1019.2
20260831172319 93 267 3.0 8.0 0.00 0.00 0.00 47 1019.3
20260831171814 93 244 2.0 7.0 0.00 0.00 0.00 49 1019.4
20260831171311 92 235 2.0 4.0 0.00 0.00 0.00 50 1019.4
20260831170827 92 241 1.0 8.0 0.00 0.00 0.00 50 1019.4
20260831170323 92 236 3.0 8.0 0.00 0.00 0.00 52 1019.5
20260831165839 91 242 2.0 7.0 0.00 0.00 0.00 50 1019.5
20260831165315 92 162 1.0 5.0 0.00 0.00 0.00 51 1019.6
20260831164831 91 182 3.0 9.0 0.00 0.00 0.00 51 1019.7